Location: Caltech
(34.1382°N, 118.1253°W)
Time: 00:14:25
(UTC-08:00)

A-11 Canister half - All Passes

Search period start: 27 November 2014 00:00
Search period end: 07 December 2014 00:00
Orbit: 1518 x 1682 km, 47.2° (Epoch: 25 November)

Date Brightness Start Highest point End Pass type
(mag) Time Alt. Az. Time Alt. Az. Time Alt. Az.
27 Nov - 06:06:55 10° SSW 06:16:09 45° SE 06:25:33 10° ENE visible
27 Nov - 08:10:57 10° WSW 08:20:58 68° NNW 08:31:06 10° NE daylight
27 Nov - 10:18:17 10° WNW 10:27:38 40° N 10:36:57 10° ENE daylight
27 Nov - 12:25:09 10° NW 12:34:52 47° NNE 12:44:20 10° E daylight
27 Nov - 14:30:33 10° NW 14:40:38 80° SW 14:50:21 10° SE daylight
27 Nov - 16:37:37 10° W 16:44:29 22° SW 16:51:14 10° S daylight
28 Nov - 05:44:15 10° SSW 05:53:18 42° SE 06:02:32 10° ENE visible
28 Nov - 07:47:59 10° WSW 07:58:00 71° NNW 08:08:11 10° NE daylight
28 Nov - 09:55:13 10° WNW 10:04:36 40° N 10:13:57 10° ENE daylight
28 Nov - 12:02:11 10° NW 12:11:51 46° NNE 12:21:19 10° E daylight
28 Nov - 14:07:37 10° NW 14:17:44 84° SW 14:27:31 10° SE daylight
28 Nov - 16:14:24 10° WNW 16:21:41 24° SW 16:28:49 10° S daylight
29 Nov - 05:21:35 10° SSW 05:30:28 39° SE 05:39:30 10° ENE visible
29 Nov - 07:25:02 10° WSW 07:35:03 74° NNW 07:45:15 10° NE daylight
29 Nov - 09:32:10 10° WNW 09:41:34 41° N 09:50:57 10° ENE daylight
29 Nov - 11:39:13 10° NW 11:48:51 45° NNE 11:58:17 10° E daylight
29 Nov - 13:44:41 10° NW 13:54:50 88° SW 14:04:39 10° SE daylight
29 Nov - 15:51:14 10° WNW 15:58:53 26° SW 16:06:22 10° S daylight
30 Nov - 04:58:58 10° S 05:07:37 36° SE 05:16:28 10° ENE visible
30 Nov - 07:02:06 10° WSW 07:12:07 77° NNW 07:22:20 10° NE daylight
30 Nov - 09:09:07 10° W 09:18:32 41° N 09:27:58 10° ENE daylight
30 Nov - 11:16:14 10° NW 11:25:50 44° NNE 11:35:15 10° E daylight
30 Nov - 13:21:44 10° NW 13:31:55 88° NE 13:41:47 10° SE daylight
30 Nov - 15:28:06 10° WNW 15:36:04 28° SW 15:43:52 10° S daylight
01 Dec - 04:36:21 10° S 04:44:48 33° SE 04:53:24 10° ENE visible
01 Dec - 06:39:11 10° WSW 06:49:11 81° NW 06:59:24 10° NE daylight
01 Dec - 08:46:03 10° W 08:55:30 42° NNW 09:04:59 10° ENE daylight
01 Dec - 10:53:15 10° WNW 11:02:48 43° NNE 11:12:13 10° E daylight
01 Dec - 12:58:48 10° NW 13:09:00 85° NE 13:18:54 10° SE daylight
01 Dec - 15:04:59 10° WNW 15:13:15 31° SW 15:21:21 10° S daylight
02 Dec - 04:13:47 10° S 04:21:58 31° SE 04:30:19 10° ENE visible
02 Dec - 06:16:16 10° SW 06:26:15 84° NW 06:36:28 10° NE visible
02 Dec - 08:23:00 10° W 08:32:28 43° NNW 08:42:00 10° ENE daylight
02 Dec - 10:30:16 10° WNW 10:39:47 42° NNE 10:49:10 10° E daylight
02 Dec - 12:35:53 10° NW 12:46:05 81° NE 12:56:00 10° ESE daylight
02 Dec - 14:41:54 10° WNW 14:50:26 33° SW 14:58:47 10° S daylight
03 Dec - 03:51:15 10° S 03:59:09 29° SE 04:07:13 10° ENE visible
03 Dec - 05:53:23 10° SW 06:03:20 88° NW 06:13:33 10° NE visible
03 Dec - 07:59:57 10° W 08:09:26 44° NNW 08:19:02 10° NE daylight
03 Dec - 10:07:17 10° WNW 10:16:45 41° N 10:26:07 10° E daylight
03 Dec - 12:12:57 10° NW 12:23:09 77° NNE 12:33:05 10° ESE daylight
03 Dec - 14:18:50 10° WNW 14:27:37 36° SW 14:36:11 10° S daylight
04 Dec - 03:28:44 10° S 03:36:20 26° SE 03:44:05 10° ENE visible
04 Dec - 05:30:30 10° SW 05:40:25 88° SE 05:50:37 10° NE visible
04 Dec - 07:36:55 10° W 07:46:25 45° NNW 07:56:03 10° NE daylight
04 Dec - 09:44:17 10° WNW 09:53:43 41° N 10:03:04 10° ENE daylight
04 Dec - 11:50:01 10° NW 12:00:13 74° NNE 12:10:09 10° ESE daylight
04 Dec - 13:55:47 10° WNW 14:04:47 39° SW 14:13:34 10° SSE daylight
05 Dec - 03:06:17 10° S 03:13:32 24° SE 03:20:55 10° ENE visible
05 Dec - 05:07:39 10° SW 05:17:30 84° SE 05:27:40 10° NE visible
05 Dec - 07:13:53 10° W 07:23:24 46° NNW 07:33:05 10° NE daylight
05 Dec - 09:21:17 10° WNW 09:30:40 40° N 09:40:01 10° ENE daylight
05 Dec - 11:27:05 10° NW 11:37:16 71° NNE 11:47:13 10° ESE daylight
05 Dec - 13:32:45 10° WNW 13:41:56 42° SW 13:50:55 10° SSE daylight
06 Dec - 02:43:52 10° S 02:50:43 22° SE 02:57:42 10° E visible
06 Dec - 04:44:48 10° SW 04:54:36 80° SE 05:04:44 10° NE visible
06 Dec - 06:50:51 10° W 07:00:24 48° NNW 07:10:08 10° NE daylight
06 Dec - 08:58:17 10° WNW 09:07:38 40° N 09:16:58 10° ENE daylight
06 Dec - 11:04:10 10° NW 11:14:19 68° NNE 11:24:16 10° ESE daylight
06 Dec - 13:09:44 10° WNW 13:19:06 45° SW 13:28:14 10° SSE daylight
